Weather in Nevonka

Russia / Krasnoyarsk Krai     58°25′24″N   98°19′19″E
temp.,
°C
wind,
m/s
gust,
m/s
humid.,
%
clouds,
%
prec.,
mm/h
press.,
hPa
HPBL,
m
21 june, mon
mon2101:00+15s117896 0.0 100211
04:00+14ssw00835 0.0 100211
07:00+20ssw00625 0.0 1002219
10:00+25sse1248100 0.0 10021127
13:00+23wsw5659100 0.1 1002677
16:00+15wsw3795100 0.4 1004480
19:00+13wsw4686100 0.4 1006670
22:00+9wsw41194100 0.6 1008639
22 june, tue
tue2201:00+9wsw41196100 1.2 1009808
04:00+9wsw3109397 0.0 1009607
07:00+10sw3688100 0.0 1011495
10:00+15w345372 0.0 10111429
13:00+18nw23410 0.0 10101497
16:00+21n213644 0.0 10101729
19:00+19nne1249100 0.0 101096
22:00+13e1166100 0.0 101111
23 june, wed
wed2301:00+11ene2271100 0.0 101114
04:00+10ne2278100 0.0 101224
07:00+14ne2664100 0.0 1011312
10:00+19ene34479 0.0 10101316
13:00+22ene434140 0.0 10091952
16:00+21ene43469 0.0 10091370
19:00+18ene246085 0.0 1010297
22:00+15se1278100 0.0 101157
24 june, thu
thu2401:00+13w1193100 0.0 101120
04:00+13wnw2692100 0.0 1011401
07:00+14nw128294 0.0 1011416
10:00+16w3369100 0.0 1010933
13:00+17wnw3364100 0.0 1010938
16:00+13w2594100 0.7 1009207
19:00+13wnw1195100 1.0 100955
22:00+11w119665 0.0 100910
25 june, fri
fri2501:00+10wsw119733 0.0 100912
04:00+9wsw119726 0.0 100912
07:00+13w128899 0.0 1009254
10:00+20w115517 0.0 10081052
13:00+24w12405 0.0 10071817
16:00+25w2235100 0.0 10062040
19:00+23w23455 0.0 1007165
22:00+16sw115914 0.0 100811